When you browse on this site, cookies collect data to enhance your experience and personalize the content and advertising you see.
Visit our Privacy Policy to learn more. By continuing to use the site, you agree to this use of cookies and data.
  • In Latvia
  • List of Countries
  • For 7 days
  • Water Temperature
  • Weather Map
  • Weather Widgets
  • user-avatar
    Login

    Hourly Weather Prirechnoe

    Today, 28 May, Thursday

    Time Temperature Precipitation Wind Pressure Humidity
    00:00 +8°C° 0 mm 4 mps 689 mmHg 63%
    01:00 +8°C° 0 mm 4 mps 689 mmHg 62%
    02:00 +7°C° 0 mm 4 mps 690 mmHg 62%
    03:00 +6°C° 0 mm 4 mps 690 mmHg 62%
    04:00 +6°C° 0 mm 4 mps 690 mmHg 58%
    05:00 +8°C° 0 mm 3 mps 691 mmHg 54%
    06:00 +8°C° 0 mm 3 mps 691 mmHg 49%
    07:00 +11°C° 0 mm 3 mps 691 mmHg 43%
    08:00 +14°C° 0 mm 2 mps 692 mmHg 36%
    09:00 +16°C° 0 mm 2 mps 692 mmHg 30%
    10:00 +17°C° 0 mm 2 mps 692 mmHg 28%
    11:00 +19°C° 0 mm 3 mps 692 mmHg 25%
    12:00 +20°C° 0 mm 3 mps 692 mmHg 23%
    13:00 +21°C° 0 mm 4 mps 692 mmHg 22%
    14:00 +22°C° 0 mm 4 mps 692 mmHg 22%
    15:00 +23°C° 0 mm 5 mps 692 mmHg 21%
    16:00 +22°C° 0 mm 5 mps 692 mmHg 24%
    17:00 +22°C° 0 mm 5 mps 692 mmHg 27%
    18:00 +21°C° 0 mm 5 mps 691 mmHg 31%
    19:00 +17°C° 0 mm 5 mps 691 mmHg 37%
    20:00 +15°C° 0 mm 4 mps 691 mmHg 43%
    21:00 +12°C° 0 mm 3 mps 691 mmHg 49%
    22:00 +12°C° 0 mm 3 mps 691 mmHg 51%
    23:00 +11°C° 0 mm 3 mps 690 mmHg 53%

    Tomorrow, 29 May, Friday

    Time Temperature Precipitation Wind Pressure Humidity
    00:00 +10°C° 0 mm 3 mps 690 mmHg 54%
    01:00 +9°C° 0 mm 3 mps 690 mmHg 56%
    02:00 +9°C° 0 mm 3 mps 690 mmHg 59%
    03:00 +8°C° 0 mm 3 mps 689 mmHg 61%
    04:00 +9°C° 0 mm 2 mps 690 mmHg 60%
    05:00 +10°C° 0 mm 2 mps 690 mmHg 60%
    06:00 +10°C° 0 mm 2 mps 690 mmHg 59%
    07:00 +13°C° 0 mm 2 mps 690 mmHg 52%
    08:00 +15°C° 0 mm 2 mps 690 mmHg 45%
    09:00 +17°C° 0 mm 2 mps 691 mmHg 37%
    10:00 +18°C° 0 mm 2 mps 691 mmHg 35%
    11:00 +20°C° 0 mm 3 mps 691 mmHg 32%
    12:00 +21°C° 0 mm 3 mps 691 mmHg 30%
    13:00 +22°C° 0 mm 3 mps 691 mmHg 28%
    14:00 +24°C° 0 mm 3 mps 691 mmHg 27%
    15:00 +23°C° 0 mm 4 mps 691 mmHg 26%
    16:00 +24°C° 0 mm 3 mps 690 mmHg 26%
    17:00 +24°C° 0 mm 3 mps 690 mmHg 27%
    18:00 +24°C° 0 mm 3 mps 690 mmHg 27%
    19:00 +20°C° 0 mm 3 mps 690 mmHg 34%
    20:00 +18°C° 0 mm 2 mps 690 mmHg 40%
    21:00 +15°C° 0 mm 2 mps 690 mmHg 46%
    22:00 +14°C° 0 mm 2 mps 689 mmHg 48%
    23:00 +13°C° 0 mm 1 mps 689 mmHg 50%

    Day after tomorrow, 30 May, Saturday

    Time Temperature Precipitation Wind Pressure Humidity
    00:00 +12°C° 0 mm 1 mps 689 mmHg 52%
    01:00 +12°C° 0 mm 1 mps 689 mmHg 53%
    02:00 +12°C° 0 mm 1 mps 689 mmHg 55%
    03:00 +11°C° 0 mm 1 mps 688 mmHg 56%
    04:00 +13°C° 0 mm 1 mps 689 mmHg 54%
    05:00 +14°C° 0 mm 1 mps 689 mmHg 51%
    06:00 +15°C° 0 mm 1 mps 690 mmHg 48%
    07:00 +18°C° 0 mm 1 mps 690 mmHg 44%
    08:00 +19°C° 0 mm 1 mps 690 mmHg 40%
    09:00 +20°C° 0 mm 2 mps 690 mmHg 36%
    10:00 +21°C° 0 mm 2 mps 691 mmHg 34%
    11:00 +23°C° 0 mm 2 mps 691 mmHg 31%
    12:00 +24°C° 0 mm 2 mps 691 mmHg 29%
    13:00 +25°C° 0 mm 3 mps 691 mmHg 29%
    14:00 +26°C° 0 mm 3 mps 691 mmHg 28%
    15:00 +27°C° 0 mm 4 mps 691 mmHg 28%
    16:00 +26°C° 0 mm 5 mps 691 mmHg 31%
    17:00 +24°C° 0 mm 6 mps 691 mmHg 34%
    18:00 +24°C° 0 mm 6 mps 690 mmHg 38%
    19:00 +22°C° 0 mm 6 mps 690 mmHg 44%
    20:00 +19°C° 0 mm 5 mps 690 mmHg 51%
    21:00 +17°C° 0 mm 4 mps 690 mmHg 57%
    22:00 +17°C° 0 mm 4 mps 690 mmHg 56%
    23:00 +15°C° 0 mm 4 mps 690 mmHg 56%

    31 May, Sunday

    Time Temperature Precipitation Wind Pressure Humidity
    00:00 +15°C° 0 mm 4 mps 690 mmHg 55%
    01:00 +14°C° 0 mm 3 mps 690 mmHg 56%
    02:00 +14°C° 0 mm 3 mps 690 mmHg 57%
    03:00 +14°C° 0 mm 2 mps 690 mmHg 57%
    04:00 +15°C° 0 mm 2 mps 690 mmHg 57%
    05:00 +16°C° 0 mm 2 mps 691 mmHg 57%
    06:00 +17°C° 0 mm 3 mps 691 mmHg 58%
    07:00 +18°C° 0 mm 3 mps 691 mmHg 48%
    08:00 +20°C° 0 mm 4 mps 691 mmHg 38%
    09:00 +22°C° 0 mm 5 mps 692 mmHg 28%
    10:00 +23°C° 0 mm 5 mps 692 mmHg 27%
    11:00 +24°C° 0 mm 6 mps 691 mmHg 25%
    12:00 +26°C° 0 mm 6 mps 691 mmHg 24%
    13:00 +26°C° 0 mm 6 mps 691 mmHg 25%
    14:00 +27°C° 0 mm 6 mps 691 mmHg 26%
    15:00 +27°C° 0 mm 7 mps 691 mmHg 27%
    16:00 +26°C° 0 mm 6 mps 691 mmHg 30%
    17:00 +26°C° 0 mm 6 mps 691 mmHg 32%
    18:00 +25°C° 0 mm 5 mps 690 mmHg 35%
    19:00 +22°C° 0 mm 5 mps 690 mmHg 41%
    20:00 +19°C° 0 mm 4 mps 690 mmHg 47%
    21:00 +17°C° 0 mm 3 mps 690 mmHg 52%
    22:00 +16°C° 0 mm 3 mps 690 mmHg 51%
    23:00 +16°C° 0 mm 3 mps 690 mmHg 50%

    1 June, Monday

    Time Temperature Precipitation Wind Pressure Humidity
    00:00 +14°C° 0 mm 3 mps 690 mmHg 49%
    01:00 +14°C° 0 mm 3 mps 690 mmHg 47%
    02:00 +15°C° 0 mm 2 mps 689 mmHg 44%
    03:00 +15°C° 0 mm 2 mps 689 mmHg 42%
    04:00 +16°C° 0 mm 2 mps 690 mmHg 43%
    05:00 +17°C° 0 mm 2 mps 690 mmHg 43%
    06:00 +18°C° 0 mm 2 mps 690 mmHg 44%
    07:00 +21°C° 0 mm 2 mps 690 mmHg 39%
    08:00 +24°C° 0 mm 1 mps 691 mmHg 35%
    09:00 +26°C° 0 mm 1 mps 691 mmHg 30%
    10:00 +27°C° 0 mm 2 mps 691 mmHg 28%
    11:00 +28°C° 0 mm 3 mps 691 mmHg 27%
    12:00 +30°C° 0 mm 4 mps 691 mmHg 25%
    13:00 +30°C° 0 mm 4 mps 691 mmHg 25%
    14:00 +30°C° 0 mm 4 mps 691 mmHg 25%
    15:00 +32°C° 0 mm 5 mps 690 mmHg 25%
    16:00 +30°C° 0 mm 4 mps 690 mmHg 27%
    17:00 +30°C° 0 mm 4 mps 690 mmHg 30%
    18:00 +29°C° 0 mm 3 mps 689 mmHg 32%
    19:00 +27°C° 0 mm 3 mps 689 mmHg 37%
    20:00 +24°C° 0 mm 2 mps 689 mmHg 41%
    21:00 +21°C° 0 mm 2 mps 688 mmHg 45%
    22:00 +20°C° 0 mm 2 mps 688 mmHg 44%
    23:00 +20°C° 0 mm 2 mps 688 mmHg 44%

    2 June, Tuesday

    Time Temperature Precipitation Wind Pressure Humidity
    00:00 +19°C° 0 mm 2 mps 688 mmHg 43%
    01:00 +19°C° 0 mm 2 mps 687 mmHg 45%
    02:00 +18°C° 0 mm 2 mps 687 mmHg 48%
    03:00 +18°C° 0 mm 2 mps 687 mmHg 50%
    04:00 +19°C° 0 mm 2 mps 687 mmHg 48%
    05:00 +20°C° 0 mm 2 mps 687 mmHg 46%
    06:00 +23°C° 0 mm 1 mps 688 mmHg 45%
    07:00 +24°C° 0 mm 2 mps 688 mmHg 39%
    08:00 +26°C° 0 mm 2 mps 688 mmHg 34%
    09:00 +28°C° 0 mm 2 mps 689 mmHg 29%
    10:00 +29°C° 0 mm 4 mps 689 mmHg 27%
    11:00 +30°C° 0 mm 5 mps 689 mmHg 26%
    12:00 +32°C° 0 mm 6 mps 689 mmHg 24%
    13:00 +32°C° 0 mm 6 mps 689 mmHg 24%
    14:00 +32°C° 0 mm 6 mps 689 mmHg 24%
    15:00 +33°C° 0 mm 6 mps 689 mmHg 24%
    16:00 +30°C° 0.1 mm 7 mps 689 mmHg 30%
    17:00 +28°C° 0.1 mm 7 mps 688 mmHg 37%
    18:00 +26°C° 0.1 mm 7 mps 688 mmHg 43%
    19:00 +23°C° 0.1 mm 6 mps 688 mmHg 49%
    20:00 +21°C° 0.1 mm 5 mps 688 mmHg 55%
    21:00 +19°C° 0.1 mm 3 mps 688 mmHg 61%
    22:00 +19°C° 0 mm 3 mps 688 mmHg 60%
    23:00 +19°C° 0 mm 3 mps 688 mmHg 59%
    Show more